EW5963 Weather Reports


time (UTC)temp
C
wind
direction
speed
KPH
gust
KPH
rain 1hr
cm
rain 24hr
cm
rain mn
cm
humidity
%
barometer
mb
20260507023141 26 59 3.2 8.0 0.00 0.00 0.00 80 1010.0
20260507022639 26 116 4.8 9.7 0.00 0.00 0.00 80 1009.8
20260507022140 26 137 6.4 11.3 0.00 0.00 0.00 80 1009.7
20260507021640 26 0 6.4 11.3 0.00 0.00 0.00 80 1009.8
20260507021140 26 114 4.8 11.3 0.00 0.00 0.00 80 1009.6
20260507020639 26 111 6.4 11.3 0.00 0.00 0.00 80 1009.4
20260507020140 26 111 6.4 11.3 0.00 0.00 0.00 80 1009.3
20260507015140 26 110 6.4 14.5 0.00 0.00 0.00 79 1009.2
20260507014640 26 87 8.0 14.5 0.00 0.00 0.00 79 1009.1
20260507013639 27 142 8.0 17.7 0.00 0.00 0.00 79 1008.9
20260507013139 27 133 11.3 17.7 0.00 0.00 0.00 79 1008.8
20260507012139 27 133 9.7 22.5 0.00 0.00 0.00 78 1008.6
20260507011638 27 0 8.0 24.1 0.00 0.00 0.00 78 1008.6
20260507010638 27 107 11.3 20.9 0.00 0.00 0.00 77 1008.3
20260507010138 27 86 11.3 25.7 0.00 0.00 0.00 76 1008.2
20260507005638 28 123 11.3 29.0 0.00 0.00 0.00 76 1008.1
20260507005138 28 106 14.5 29.0 0.00 0.00 0.00 76 1007.9
20260507004634 28 72 6.4 20.9 0.00 0.00 0.00 75 1007.9
20260507004132 28 107 9.7 25.7 0.00 0.00 0.00 75 1007.9
20260507003632 28 118 11.3 25.7 0.00 0.00 0.00 75 1007.7
20260507003132 28 120 9.7 20.9 0.00 0.00 0.00 74 1007.8
20260507002630 28 107 12.9 20.9 0.00 0.00 0.00 74 1007.9
20260507002131 28 107 12.9 20.9 0.00 0.00 0.00 74 1007.7
20260507001129 29 102 8.0 16.1 0.00 0.00 0.00 73 1007.6
20260507000629 29 63 8.0 16.1 0.00 0.00 0.00 73 1007.5
20260506235629 29 107 8.0 17.7 0.00 0.00 0.00 73 1007.3
20260506235128 29 125 8.0 19.3 0.00 0.00 0.00 73 1007.4
20260506234129 29 133 11.3 20.9 0.00 0.00 0.00 73 1007.2
20260506233629 29 63 12.9 20.9 0.00 0.00 0.00 73 1007.1
20260506232629 29 99 11.3 22.5 0.00 0.00 0.00 72 1007.1
20260506232129 30 107 9.7 20.9 0.00 0.00 0.00 72 1007.0
20260506231629 30 130 14.5 20.9 0.00 0.00 0.00 72 1007.0
20260506231129 30 133 8.0 19.3 0.00 0.00 0.00 71 1007.0
20260506230629 30 125 9.7 20.9 0.00 0.00 0.00 71 1007.0
20260506230129 30 114 11.3 20.9 0.00 0.00 0.00 71 1006.9
20260506225628 30 124 8.0 20.9 0.00 0.00 0.00 72 1006.9
20260506225129 30 120 8.0 20.9 0.00 0.00 0.00 71 1007.0
20260506224629 30 125 11.3 20.9 0.00 0.00 0.00 70 1007.0
20260506224129 30 87 11.3 16.1 0.00 0.00 0.00 70 1007.0
20260506223629 30 131 8.0 16.1 0.00 0.00 0.00 70 1007.0
20260506222629 30 113 12.9 20.9 0.00 0.00 0.00 69 1006.9
20260506222129 30 138 8.0 19.3 0.00 0.00 0.00 69 1006.8
20260506221129 30 110 11.3 24.1 0.00 0.00 0.00 69 1006.7
20260506220628 31 130 9.7 24.1 0.00 0.00 0.00 69 1006.7
20260506215629 30 0 12.9 19.3 0.00 0.00 0.00 68 1006.7
20260506215129 30 90 9.7 16.1 0.00 0.00 0.00 68 1006.7
20260506214629 30 141 8.0 16.1 0.00 0.00 0.00 68 1006.7
20260506214128 30 116 9.7 17.7 0.00 0.00 0.00 68 1006.8
20260506213129 30 147 6.4 17.7 0.00 0.00 0.00 69 1006.8
20260506212629 30 130 11.3 17.7 0.00 0.00 0.00 70 1006.8
20260506211629 30 144 8.0 19.3 0.00 0.00 0.00 70 1007.0
20260506211129 30 130 9.7 17.7 0.00 0.00 0.00 70 1007.0
20260506210128 30 109 8.0 17.7 0.00 0.00 0.00 70 1007.0
20260506205129 30 154 9.7 16.1 0.00 0.00 0.00 71 1007.2
20260506204628 30 113 6.4 16.1 0.00 0.00 0.00 72 1007.2
20260506203629 30 138 11.3 14.5 0.00 0.00 0.00 72 1007.3
20260506203129 29 127 4.8 14.5 0.00 0.00 0.00 72 1007.5
20260506202128 29 175 6.4 14.5 0.00 0.00 0.00 72 1007.4
20260506201629 29 142 6.4 14.5 0.00 0.00 0.00 72 1007.6
20260506200629 30 152 9.7 16.1 0.00 0.00 0.00 71 1007.7
20260506200128 30 125 6.4 14.5 0.00 0.00 0.00 71 1007.8
20260506195629 30 106 8.0 14.5 0.00 0.00 0.00 72 1007.9
20260506195129 30 78 8.0 14.5 0.00 0.00 0.00 72 1007.9
20260506194629 30 124 4.8 14.5 0.00 0.00 0.00 72 1007.9
20260506194129 30 120 6.4 16.1 0.00 0.00 0.00 73 1008.0
20260506193629 29 111 6.4 16.1 0.00 0.00 0.00 73 1008.2
20260506193129 29 133 4.8 14.5 0.00 0.00 0.00 74 1008.3
20260506192630 29 230 6.4 11.3 0.00 0.00 0.00 75 1008.3
20260506192129 28 172 6.4 11.3 0.00 0.00 0.00 75 1008.3
20260506191629 28 176 6.4 11.3 0.00 0.00 0.00 75 1008.4
20260506191129 28 169 3.2 9.7 0.00 0.00 0.00 76 1008.5
20260506190628 28 127 6.4 9.7 0.00 0.00 0.00 75 1008.5
20260506190128 28 138 3.2 16.1 0.00 0.00 0.00 76 1008.6
20260506185629 28 121 9.7 16.1 0.00 0.00 0.00 76 1008.6
20260506185129 28 73 3.2 8.0 0.00 0.00 0.00 77 1008.6
20260506184629 28 118 4.8 6.4 0.00 0.00 0.00 76 1008.6
20260506184129 27 0 0.0 8.0 0.00 0.00 0.00 76 1008.7
20260506183628 27 173 3.2 9.7 0.00 0.00 0.00 76 1008.8
20260506183129 27 169 3.2 9.7 0.00 0.00 0.00 77 1008.9
20260506182629 27 130 4.8 8.0 0.00 0.00 0.00 77 1008.9
20260506182129 27 154 0.0 6.4 0.00 0.00 0.00 77 1009.0
20260506181629 27 75 4.8 6.4 0.00 0.00 0.00 77 1009.1
20260506181129 27 137 4.8 8.0 0.00 0.00 0.00 77 1009.2
20260506180628 27 114 3.2 8.0 0.00 0.00 0.00 77 1009.2
20260506180129 27 141 4.8 6.4 0.00 0.00 0.00 78 1009.2
20260506175629 27 58 0.0 6.4 0.00 0.00 0.00 78 1009.2
20260506175128 27 66 3.2 4.8 0.00 0.00 0.00 78 1009.3
20260506174629 27 80 0.0 4.8 0.00 0.00 0.00 78 1009.3
20260506174128 27 83 0.0 3.2 0.00 0.00 0.00 78 1009.3
20260506173631 27 123 0.0 6.4 0.00 0.00 0.00 78 1009.3
20260506173131 27 290 0.0 6.4 0.00 0.00 0.00 79 1009.3
20260506172630 27 190 3.2 6.4 0.00 0.00 0.00 79 1009.3
20260506172130 26 56 0.0 4.8 0.00 0.00 0.00 79 1009.4
20260506171630 26 178 3.2 6.4 0.00 0.00 0.00 79 1009.4
20260506171129 26 127 1.6 8.0 0.00 0.00 0.00 79 1009.3
20260506170130 26 206 3.2 6.4 0.00 0.00 0.00 79 1009.2
20260506165630 26 183 3.2 9.7 0.00 0.00 0.00 79 1009.1
20260506164630 26 111 4.8 11.3 0.00 0.00 0.00 79 1009.1
20260506164130 26 109 3.2 11.3 0.00 0.00 0.00 79 1009.1
20260506163128 26 131 6.4 20.9 0.00 0.00 0.00 79 1008.8
20260506162628 26 161 8.0 20.9 0.00 0.00 0.00 79 1008.8
20260506162130 26 149 9.7 22.5 0.00 0.00 0.00 79 1008.7
20260506161630 26 137 9.7 22.5 0.00 0.00 0.00 79 1008.7
20260506161129 26 125 9.7 20.9 0.00 0.00 0.00 78 1008.7
20260506160629 26 151 12.9 19.3 0.00 0.00 0.00 78 1008.7
20260506160129 26 157 6.4 19.3 0.00 0.00 0.00 78 1008.6
20260506155629 26 176 12.9 22.5 0.00 0.00 0.00 78 1008.5
20260506155129 26 202 11.3 22.5 0.00 0.00 0.00 78 1008.3
20260506154629 26 148 9.7 22.5 0.00 0.00 0.00 79 1008.3
20260506154128 26 186 11.3 22.5 0.00 0.00 0.00 79 1008.3
20260506153629 26 140 8.0 17.7 0.00 0.00 0.00 79 1008.3
20260506153129 26 120 11.3 20.9 0.00 0.00 0.00 79 1008.3
20260506152129 26 149 9.7 22.5 0.00 0.00 0.00 80 1008.2
20260506151629 26 124 12.9 22.5 0.00 0.00 0.00 80 1008.1
20260506150628 26 158 6.4 27.4 0.00 0.00 0.00 80 1008.1
20260506150128 26 142 12.9 27.4 0.00 0.00 0.00 80 1008.0
20260506145128 26 162 11.3 19.3 0.00 0.00 0.00 81 1007.9
20260506144629 26 169 12.9 22.5 0.00 0.00 0.00 81 1007.9
20260506144128 26 190 12.9 22.5 0.00 0.00 0.00 82 1007.9
20260506143628 25 140 12.9 20.9 0.00 0.00 0.00 82 1007.8
20260506143128 25 165 14.5 20.9 0.00 0.00 0.00 82 1007.7
20260506142628 25 140 11.3 20.9 0.00 0.00 0.00 83 1007.8
20260506142128 25 161 11.3 20.9 0.00 0.00 0.00 83 1007.9
20260506141627 25 113 12.9 22.5 0.00 0.00 0.00 83 1007.9
20260506141127 25 134 12.9 22.5 0.00 0.00 0.00 83 1007.9
20260506140627 25 200 11.3 22.5 0.00 0.00 0.00 83 1007.9
20260506140127 25 138 11.3 22.5 0.00 0.00 0.00 83 1007.8
20260506135627 25 127 16.1 22.5 0.00 0.00 0.00 83 1007.8
20260506135127 25 116 9.7 22.5 0.00 0.00 0.00 84 1007.8
20260506134627 24 110 8.0 17.7 0.00 0.00 0.00 84 1007.8
20260506134127 24 147 9.7 20.9 0.00 0.00 0.00 84 1007.8
20260506133627 24 110 11.3 20.9 0.00 0.00 0.00 84 1007.7
20260506133127 24 134 8.0 17.7 0.00 0.00 0.00 84 1007.8
20260506132626 24 124 12.9 17.7 0.00 0.00 0.00 84 1007.8
20260506132127 24 134 8.0 16.1 0.00 0.00 0.00 84 1007.8
20260506131627 24 127 6.4 16.1 0.00 0.00 0.00 84 1007.9
20260506131126 24 138 8.0 16.1 0.00 0.00 0.00 84 1007.9
20260506130126 24 73 9.7 16.1 0.00 0.00 0.00 84 1007.8
20260506125626 24 0 6.4 19.3 0.00 0.00 0.00 84 1007.8
20260506124626 23 114 6.4 16.1 0.00 0.00 0.00 84 1007.7
20260506124125 23 102 9.7 16.1 0.00 0.00 0.00 84 1007.6
20260506123126 23 94 9.7 16.1 0.00 0.00 0.00 84 1007.5
20260506122625 23 94 9.7 17.7 0.00 0.00 0.00 84 1007.4
20260506121625 23 106 9.7 19.3 0.00 0.00 0.00 84 1007.5
20260506121128 23 120 9.7 17.7 0.00 0.00 0.00 84 1007.5
20260506120625 23 111 11.3 19.3 0.00 0.00 0.00 84 1007.5
20260506120125 23 104 12.9 19.3 0.00 0.00 0.00 84 1007.3
20260506115625 23 102 8.0 14.5 0.00 0.00 0.00 84 1007.3
20260506115125 23 93 9.7 14.5 0.00 0.00 0.00 84 1007.3
20260506114625 23 92 9.7 14.5 0.00 0.00 0.00 84 1007.3
20260506114123 23 120 8.0 14.5 0.00 0.00 0.00 84 1007.3
20260506113622 23 113 6.4 11.3 0.00 0.00 0.00 84 1007.4
20260506113123 23 106 8.0 11.3 0.00 0.00 0.00 84 1007.3
20260506112125 23 121 9.7 17.7 0.00 0.00 0.00 84 1007.3
20260506111624 23 135 6.4 17.7 0.00 0.00 0.00 83 1007.2
20260506111124 23 107 8.0 14.5 0.00 0.00 0.00 83 1007.2
20260506110624 23 0 8.0 16.1 0.00 0.00 0.00 83 1007.2
20260506110123 23 97 9.7 16.1 0.00 0.00 0.00 83 1007.2
20260506105624 23 116 9.7 14.5 0.00 0.00 0.00 83 1007.2
20260506105124 23 97 6.4 14.5 0.00 0.00 0.00 83 1007.3
20260506104624 23 123 6.4 14.5 0.00 0.00 0.00 83 1007.2
20260506104123 23 104 8.0 16.1 0.00 0.00 0.00 83 1007.2
20260506103624 23 92 9.7 16.1 0.00 0.00 0.00 83 1007.3
20260506103123 23 109 8.0 16.1 0.00 0.00 0.00 83 1007.3
20260506102124 23 103 6.4 11.3 0.00 0.00 0.00 82 1007.4
20260506101623 23 94 8.0 14.5 0.00 0.00 0.00 82 1007.3
20260506100623 24 93 8.0 14.5 0.00 0.00 0.00 82 1007.3
20260506100123 24 107 8.0 14.5 0.00 0.00 0.00 82 1007.2
20260506095123 24 107 6.4 14.5 0.00 0.00 0.00 82 1007.2
20260506094622 24 102 8.0 14.5 0.00 0.00 0.00 81 1007.2
20260506093623 24 0 8.0 16.1 0.00 0.00 0.00 81 1007.3
20260506093122 24 120 9.7 14.5 0.00 0.00 0.00 81 1007.3
20260506092122 24 76 6.4 17.7 0.00 0.00 0.00 81 1007.2
20260506091622 24 113 8.0 17.7 0.00 0.00 0.00 81 1007.3
20260506090622 24 117 8.0 17.7 0.00 0.00 0.00 81 1007.3
20260506090122 24 133 9.7 17.7 0.00 0.00 0.00 81 1007.2
20260506085122 24 127 8.0 16.1 0.00 0.00 0.00 81 1007.1
20260506084621 24 176 6.4 19.3 0.00 0.00 0.00 81 1007.0
20260506084122 24 147 9.7 20.9 0.00 0.00 0.00 81 1007.0
20260506083621 24 128 8.0 20.9 0.00 0.00 0.00 81 1006.9
20260506083121 24 128 9.7 19.3 0.00 0.00 0.00 81 1007.0
20260506082622 24 124 9.7 19.3 0.00 0.00 0.00 81 1007.0
20260506082121 24 87 9.7 20.9 0.00 0.00 0.00 81 1007.1
20260506081622 24 116 11.3 22.5 0.00 0.00 0.00 81 1007.1
20260506081121 24 158 14.5 22.5 0.00 0.00 0.00 81 1007.1
20260506080621 24 121 9.7 20.9 0.00 0.00 0.00 81 1007.0
20260506080121 24 110 12.9 19.3 0.00 0.00 0.00 81 1007.1
20260506073121 24 116 14.5 25.7 0.00 0.00 0.00 82 1007.2
20260506072620 24 110 12.9 24.1 0.00 0.00 0.00 82 1007.2
20260506072120 24 131 8.0 19.3 0.00 0.00 0.00 82 1007.3
20260506071620 24 85 8.0 19.3 0.00 0.00 0.00 82 1007.3
20260506071122 24 135 8.0 19.3 0.00 0.00 0.00 82 1007.3
20260506070620 24 140 9.7 25.7 0.00 0.00 0.00 82 1007.3
20260506070120 24 135 12.9 25.7 0.00 0.00 0.00 82 1007.3
20260506062119 24 130 8.0 19.3 0.00 0.00 0.00 82 1007.6
20260506061620 24 113 8.0 27.4 0.00 0.00 0.00 82 1007.7
20260506061119 24 131 9.7 27.4 0.00 0.00 0.00 82 1007.6
20260506060118 24 125 12.9 29.0 0.00 0.00 0.00 82 1007.6
20260506050618 24 133 14.5 22.5 0.00 0.00 0.00 82 1008.0
20260506050118 24 144 9.7 22.5 0.00 0.00 0.00 82 1008.0
20260506045117 24 144 9.7 20.9 0.00 0.00 0.00 82 1008.1
20260506044618 24 130 9.7 24.1 0.00 0.00 0.00 82 1007.9
20260506043617 24 148 11.3 29.0 0.00 0.00 0.00 82 1007.9
20260506043117 24 145 17.7 29.0 0.00 0.00 0.00 82 1007.9
20260506042618 24 110 12.9 20.9 0.00 0.00 0.00 82 1007.8
20260506042118 24 151 14.5 20.9 0.00 0.00 0.00 82 1007.9
20260506041617 24 159 9.7 24.1 0.00 0.00 0.00 82 1007.8
20260506041117 24 151 11.3 24.1 0.00 0.00 0.00 82 1007.7
20260506040617 24 141 12.9 22.5 0.00 0.00 0.00 81 1007.6
20260506040117 24 148 11.3 27.4 0.00 0.00 0.00 81 1007.5
20260506035617 24 110 14.5 27.4 0.00 0.00 0.00 81 1007.3
20260506035117 24 148 16.1 27.4 0.00 0.00 0.00 81 1007.1
20260506034616 24 154 11.3 20.9 0.00 0.00 0.00 81 1007.1
20260506034116 24 130 12.9 24.1 0.00 0.00 0.00 81 1007.1
20260506033617 24 158 14.5 25.7 0.00 0.00 0.00 81 1007.0
20260506033116 24 123 14.5 25.7 0.00 0.00 0.00 81 1006.9
20260506032616 24 145 14.5 22.5 0.00 0.00 0.00 81 1006.8
20260506032117 24 127 12.9 25.7 0.00 0.00 0.00 81 1006.7
20260506031616 24 190 9.7 25.7 0.00 0.00 0.00 81 1006.7
20260506031116 24 130 9.7 25.7 0.00 0.00 0.00 80 1006.7
20260506030616 24 127 11.3 22.5 0.00 0.00 0.00 80 1006.7
20260506030115 24 127 14.5 25.7 0.00 0.00 0.00 80 1006.6
20260506025615 25 127 19.3 25.7 0.00 0.00 0.00 80 1006.5
20260506025116 25 124 12.9 27.4 0.00 0.00 0.00 80 1006.5
20260506024615 25 128 16.1 27.4 0.00 0.00 0.00 80 1006.4
20260506024115 25 135 11.3 30.6 0.00 0.00 0.00 80 1006.4
20260506023616 25 151 16.1 30.6 0.00 0.00 0.00 80 1006.2